Weather History for Harrison, AR

Change the Weather History Date:

Sunday, June 17, 2012

  Actual Average Record
Temperature  
Mean Temperature 80 °F 74 °F  
Max Temperature 92 °F 85 °F 100 °F (1936)
Min Temperature 68 °F 63 °F 46 °F (1917)
Degree Days  
Heating Degree Days 0 0  
Month to date heating degree days 5 3  
Since 1 June heating degree days 5 3  
Since 1 July heating degree days 3081 4001  
Cooling Degree Days 15 9  
Month to date cooling degree days 138 126  
Year to date cooling degree days 465 265  
Since 1 June cooling degree days 138 126  
Growing Degree Days 30 (Base 50)    
Moisture  
Dew Point 63 °F    
Average Humidity 62    
Maximum Humidity 84    
Minimum Humidity 40    
Precipitation  
Precipitation 0.00 in 0.14 in 3.52 in (1980)
Month to date precipitation 1.21 2.46  
Year to date precipitation 14.70 20.46  
Snow  
Snow 0.00 in 0.00 in - ()
Month to date snowfall 0.0 0.0  
Since 1 June snowfall 0.0 0.0  
Since 1 July snowfall 2.1 11.5  
Snow Depth 0.00 in    
Sea Level Pressure  
Sea Level Pressure 29.94 in    
Wind  
Wind Speed 6 mph (SSW)    
Max Wind Speed 16 mph    
Max Gust Speed 21 mph    
Visibility 10 miles    
Events      
T = Trace of Precipitation, MM = Missing Value Source: NWS Daily Summary

Daily Weather History Graph

Daily Weather History Graph

Search for Another Location

Airport:

Trip Planner

Search our weather history database for the weather conditions in past years. The results will help you decide how hot, cold, wet, or windy it might be!

Date:

Astronomy

Jun. 17, 2012 Rise Set
Actual Time 5:54 AM CDT 8:32 PM CDT
Civil Twilight 5:24 AM CDT 9:02 PM CDT
Nautical Twilight 4:46 AM CDT 9:40 PM CDT
Astronomical Twilight 4:04 AM CDT 10:23 PM CDT
Moon 4:22 AM CDT (6/17) 7:02 PM CDT (6/17)
Length of Visible Light 15h 38m
Length of Day
14h 37m
Waning Crescent, 3% of the Moon is Illuminated
Jun 17
Waning Crescent
Jun 19
New
Jun 26
First Quarter
Jul 3
Full
Jul 10
Last Quarter

Hourly Weather History & Observations

Time (CDT) Temp. Heat Index Dew Point Humidity Pressure Visibility Wind Dir Wind Speed Gust Speed Precip Events Conditions
12:53 AM 75.0 °F - 62.1 °F 64% 30.02 in 10.0 mi SSE 3.5 mph - N/A   Clear
1:53 AM 73.0 °F - 62.1 °F 68% 30.02 in 10.0 mi South 3.5 mph - N/A   Clear
2:53 AM 73.0 °F - 64.0 °F 73% 30.01 in 10.0 mi South 4.6 mph - N/A   Clear
3:53 AM 73.0 °F - 62.1 °F 68% 30.01 in 10.0 mi SSW 3.5 mph - N/A   Clear
4:53 AM 69.1 °F - 63.0 °F 81% 30.02 in 10.0 mi Calm Calm - N/A   Partly Cloudy
5:53 AM 69.1 °F - 63.0 °F 81% 30.02 in 10.0 mi SSE 3.5 mph - N/A   Overcast
6:53 AM 69.1 °F - 64.0 °F 84% 30.05 in 10.0 mi North 8.1 mph - N/A   Clear
7:53 AM 73.9 °F - 64.9 °F 73% 30.04 in 10.0 mi Calm Calm - N/A   Clear
8:53 AM 78.1 °F - 64.0 °F 62% 30.03 in 10.0 mi Variable 3.5 mph - N/A   Clear
9:53 AM 82.9 °F 84.4 °F 64.0 °F 53% 29.99 in 10.0 mi WSW 10.4 mph - N/A   Clear
10:53 AM 84.0 °F 85.4 °F 64.0 °F 51% 29.96 in 10.0 mi SSW 9.2 mph - N/A   Clear
11:53 AM 86.0 °F 86.8 °F 63.0 °F 46% 29.95 in 10.0 mi SW 8.1 mph - N/A   Clear
12:53 PM 88.0 °F 88.7 °F 63.0 °F 43% 29.94 in 10.0 mi West 8.1 mph 16.1 mph N/A   Clear
1:53 PM 90.0 °F 91.3 °F 64.0 °F 42% 29.93 in 10.0 mi SSW 8.1 mph - N/A   Partly Cloudy
2:53 PM 88.0 °F 88.7 °F 63.0 °F 43% 29.91 in 10.0 mi SSW 6.9 mph 19.6 mph N/A   Scattered Clouds
3:53 PM 89.1 °F 90.0 °F 63.0 °F 42% 29.89 in 10.0 mi South 6.9 mph - N/A   Partly Cloudy
4:53 PM 90.0 °F 90.6 °F 63.0 °F 40% 29.87 in 10.0 mi South 12.7 mph 18.4 mph N/A   Scattered Clouds
5:53 PM 88.0 °F 87.9 °F 61.0 °F 40% 29.84 in 10.0 mi South 10.4 mph - N/A   Clear
6:53 PM 88.0 °F 87.9 °F 61.0 °F 40% 29.83 in 10.0 mi South 9.2 mph - N/A   Clear
7:53 PM 84.2 °F 85.0 °F 62.6 °F 48% 29.89 in 10.0 mi South 5.8 mph - N/A   Clear
8:53 PM 80.1 °F 81.5 °F 63.0 °F 56% 29.85 in 10.0 mi South 4.6 mph - N/A   Clear
9:53 PM 78.1 °F - 63.0 °F 60% 29.85 in 10.0 mi South 6.9 mph - N/A   Clear
10:53 PM 75.9 °F - 63.0 °F 64% 29.86 in 10.0 mi South 6.9 mph - N/A   Clear
11:53 PM 73.0 °F - 63.0 °F 71% 29.85 in 10.0 mi South 5.8 mph - N/A   Clear